Location: Doschendorf
(50.0069°N, 11.0602°E)
Time: 11:15:17
(UTC+00:00)

NOSS 2-3 (E) - Pass Details

Date: 17 November 2019
Orbit: 595 x 1616 km, 63.4° (Epoch: 29 November)

Event Time Altitude Azimuth Distance (km) Brightness Sun altitude
Rises 18:23:54 0° 236° (SW) 2,880 7.7 -27.8°
Reaches altitude 10° 18:26:02 10° 240° (WSW) 2,031 6.9 -28.1°
Enters shadow 18:30:18 57° 310° (NW) 837 4.3 -28.8°
